カタログに戻る

FENGYUN 1C DEB

運用中SSO
NORAD 30465·DEBRIS·🇨🇳 China

打ち上げ May 10, 1999 から Taiyuan Satellite Launch Center

Loading…

次のパス (今後24時間)

TLE

最新Source: Space-Track

元期: Sep 14, 2026, 05:47 UTC

1 30465U 99025AGC 26257.24149449  .00002831  00000-0  98435-3 0  9998
2 30465  98.8268 356.6250 0015568 294.2847  94.7566 14.36215825 13085

AllMySatでFENGYUN 1C DEBをリアルタイム追跡

Download on the App Store